Theta_e
354 359 365 366 366 366 366 365 367 368 368 369 367 364 363 362 361 360 359 360 361 360 361 361 361 362 359 361 362 362 361 361 361 360 357 357 362 361 360 360 358 349 357
356 360 365 367 366 365 366 366 367 366 367 368 367 365 363 361 360 361 362 362 361 361 361 361 362 362 361 361 362 362 361 358 357 357 355 361 361 360 361 361 360 354 357
355 360 362 365 366 365 365 365 365 364 364 365 366 365 362 362 362 363 362 361 361 361 361 361 361 361 361 361 360 359 360 360 359 354 357 358 359 361 361 361 360 360 356
355 359 362 364 364 365 364 364 364 363 363 363 363 364 363 363 362 361 360 361 361 361 361 360 360 360 361 361 361 360 360 360 357 356 358 357 354 360 360 361 360 360 360
356 359 362 366 364 362 362 363 365 365 362 363 363 363 363 363 361 361 361 361 362 361 360 361 361 359 360 360 361 361 360 361 356 353 358 360 358 359 361 361 360 360 360
358 359 364 366 361 361 362 363 362 362 362 362 365 363 362 361 359 361 361 360 361 361 361 361 360 360 360 359 360 360 360 359 354 351 359 360 357 359 360 360 359 360 360
358 360 360 364 361 362 361 365 366 362 359 361 363 365 362 362 359 358 359 359 359 361 360 359 359 358 357 358 358 359 361 358 354 351 357 359 359 361 360 360 360 359 358
357 359 359 361 363 363 361 365 365 364 360 359 362 364 363 361 362 357 358 357 358 358 359 359 359 359 358 357 356 357 359 358 354 351 357 358 358 360 360 360 358 356 357
358 358 359 358 358 360 363 363 365 364 364 361 361 362 363 363 361 359 354 355 357 358 358 358 357 357 357 357 356 355 357 357 358 356 353 356 357 358 360 360 357 359 360
358 356 359 356 358 358 359 362 365 363 365 365 360 362 364 363 362 361 360 354 355 357 357 356 356 355 355 355 353 353 355 357 356 356 356 356 357 358 360 359 359 360 360
356 356 356 356 359 364 360 359 365 364 362 364 364 362 361 360 359 353 358 358 358 357 356 357 354 354 353 353 352 354 353 360 355 354 356 357 357 358 360 358 359 359 360
350 356 355 355 356 359 359 358 365 363 365 364 365 363 360 360 356 353 355 358 357 356 357 357 357 356 354 356 354 354 360 355 355 354 354 358 358 358 357 358 357 358 358
347 354 358 355 357 357 359 359 356 361 363 361 364 364 360 356 354 350 349 351 355 356 358 356 354 355 355 355 351 354 358 352 354 352 350 353 356 356 357 356 356 358 358
347 349 353 357 356 356 356 359 357 359 361 359 361 364 359 353 352 352 349 350 354 354 358 356 355 353 354 354 351 351 350 351 350 352 351 350 354 353 356 351 353 356 356
347 348 355 357 357 358 358 358 358 358 358 360 361 364 359 352 351 350 352 352 352 352 351 352 358 357 356 354 349 349 350 348 352 351 350 351 352 354 353 345 354 355 355
349 350 355 357 359 358 357 360 357 358 358 360 358 362 362 355 354 349 352 352 350 353 352 350 351 354 351 351 349 347 351 353 352 352 351 351 352 354 356 349 353 354 356
351 354 355 357 358 358 358 359 358 358 359 358 358 361 362 360 357 355 354 353 351 352 351 351 352 355 356 352 354 351 351 351 348 351 352 350 348 352 353 351 355 355 356
353 353 356 355 356 357 357 358 357 358 357 358 358 360 359 359 360 359 355 353 358 355 353 357 358 357 357 353 356 356 356 350 348 352 354 350 349 350 351 355 352 351 356
352 353 354 356 355 357 358 357 356 357 357 355 357 358 360 358 360 358 354 354 356 352 352 357 357 357 355 355 355 357 349 349 348 353 352 348 351 352 348 354 353 354 356
353 353 354 354 356 357 356 357 355 355 355 354 353 358 355 356 356 358 357 357 356 353 354 354 354 356 356 356 353 352 348 349 350 352 347 354 352 351 349 352 351 351 358
352 353 353 353 355 354 352 350 349 348 351 352 351 353 352 351 352 356 356 358 356 353 354 349 354 355 354 354 352 346 348 351 349 351 354 352 353 351 351 351 348 349 351
350 352 353 348 351 353 353 353 349 350 353 350 353 355 352 350 349 351 357 356 347 346 353 352 353 350 351 353 351 347 334 343 346 351 351 350 352 351 351 351 350 352 352
347 350 352 352 352 354 355 352 352 353 352 347 347 347 349 352 348 349 356 356 354 352 355 353 356 353 351 352 354 350 332 332 342 349 348 350 350 349 350 350 348 351 353
349 348 350 352 354 353 354 352 346 347 344 347 347 346 346 348 347 350 356 356 355 356 345 346 353 354 353 350 348 351 348 347 343 337 345 347 349 349 350 349 348 348 352
345 347 347 350 354 354 353 354 350 347 352 350 346 346 352 348 345 344 350 357 357 356 351 348 351 355 354 354 354 349 345 348 345 343 337 341 345 347 351 350 349 348 350
343 347 347 347 349 351 352 352 352 350 347 348 340 341 341 346 343 344 347 353 360 358 356 357 353 357 353 351 356 356 352 350 350 342 343 342 341 343 350 351 350 349 350
Wind_Speed
14 15 15 15 15 14 15 14 14 14 14 14 15 15 13 12 11 10 9 8 7 6 7 8 8 11 12 12 13 14 14 13 13 15 14 14 15 15 16 15 15 15 16
19 17 16 16 16 15 14 14 14 14 15 15 16 14 14 12 10 9 9 8 8 7 7 7 10 11 11 12 13 14 14 14 13 14 14 13 15 16 15 15 14 16 15
20 17 16 17 16 15 14 13 14 14 14 14 14 14 12 11 10 9 8 8 8 8 8 7 10 10 12 12 13 12 13 12 14 13 12 9 12 14 14 16 15 15 15
19 17 17 17 16 15 15 14 14 14 13 13 12 13 13 11 10 9 8 8 8 8 9 7 11 10 12 11 13 11 10 13 12 12 7 10 12 14 14 16 15 15 14
18 17 16 17 16 16 16 15 13 13 13 13 13 12 12 12 9 10 9 9 10 9 8 9 10 10 10 11 11 11 12 13 13 10 7 8 10 13 15 15 15 14 13
17 17 18 17 17 16 16 16 14 13 12 12 12 12 12 12 10 9 9 9 10 9 9 9 9 9 8 8 10 10 11 11 10 8 7 7 9 13 14 14 14 15 13
17 16 18 17 17 15 15 14 15 15 13 12 11 13 12 12 10 8 9 8 7 9 9 9 9 9 8 8 6 7 10 10 7 7 8 6 10 12 13 13 13 14 13
18 17 18 18 16 14 15 14 14 13 13 12 12 11 13 10 9 8 7 7 9 9 8 8 9 8 7 7 6 5 8 8 7 7 7 5 7 11 12 13 12 13 13
17 15 15 16 15 16 14 14 13 13 13 13 12 11 10 9 8 7 6 6 7 8 8 7 7 7 7 7 5 5 7 8 5 4 7 4 7 10 11 11 12 11 12
15 15 14 15 11 13 12 15 13 14 13 13 12 11 11 10 9 8 7 6 6 6 7 6 5 5 5 5 3 3 3 7 6 6 4 5 6 10 11 11 10 12 13
13 14 15 15 14 12 12 12 13 14 13 11 12 10 7 5 6 7 5 5 7 7 6 6 6 5 4 3 3 3 1 3 5 4 3 5 7 9 11 9 10 11 11
18 16 15 15 15 14 10 11 10 11 8 8 9 9 6 5 4 6 6 7 6 5 5 6 7 6 7 2 1 3 2 3 5 4 4 7 8 8 8 9 9 10 10
19 14 16 15 14 14 11 9 7 6 6 7 8 8 7 5 4 4 4 5 5 4 3 4 6 5 5 3 2 2 3 5 4 3 5 4 6 5 7 6 7 9 10
19 18 17 17 15 14 10 9 9 7 7 7 7 9 6 5 5 4 4 4 4 3 4 3 3 5 5 3 3 3 3 4 3 4 5 6 6 7 9 9 5 8 8
18 18 18 17 15 14 12 10 9 9 8 9 7 8 7 6 5 4 3 4 5 5 5 5 4 5 5 5 2 3 2 5 6 4 4 8 9 8 15 18 7 8 9
17 19 19 18 17 15 13 12 10 9 9 8 8 9 10 7 5 4 4 4 4 5 4 3 4 5 4 4 4 4 6 6 7 5 4 6 11 11 14 16 12 10 11
16 17 18 19 18 16 16 12 10 9 9 9 8 9 10 9 8 6 5 5 4 4 5 6 6 6 5 5 8 6 4 4 3 4 5 5 8 13 15 14 12 9 10
14 16 16 15 17 17 15 12 10 9 9 9 8 8 10 9 9 6 6 6 5 5 3 6 6 6 6 6 5 5 6 6 4 6 6 3 7 8 11 13 13 10 11
16 16 17 18 18 17 14 11 9 9 10 8 8 8 10 9 9 7 5 4 5 4 6 6 6 6 5 5 5 4 3 4 5 5 6 6 9 10 9 15 14 13 13
16 15 16 15 16 16 12 11 9 9 9 8 5 7 6 6 8 7 6 7 6 4 6 6 8 6 3 4 3 2 3 3 4 6 5 7 8 9 11 8 10 10 13
17 17 18 16 16 12 12 12 12 11 9 8 7 6 4 4 4 6 6 6 4 7 6 4 7 7 4 4 4 1 2 4 6 6 5 7 8 10 11 9 7 8 9
19 19 17 15 15 15 11 10 6 6 3 1 3 5 4 4 5 4 7 7 6 5 9 6 8 4 4 6 4 3 1 3 4 7 6 6 9 9 10 10 11 11 9
18 19 18 18 16 15 14 10 7 6 3 6 5 2 2 5 5 5 7 7 8 8 7 5 8 9 6 6 8 2 2 3 4 3 6 6 9 9 10 10 11 11 11
18 16 18 18 18 16 17 13 14 12 8 7 7 7 5 5 4 3 9 9 7 6 5 6 8 9 7 7 5 7 4 2 3 4 3 5 6 10 11 9 11 12 12
15 16 16 17 17 17 17 17 14 11 8 4 4 10 15 9 6 6 10 9 9 8 8 8 10 11 9 5 5 4 5 5 2 2 4 4 4 6 9 10 10 10 13
13 15 14 16 16 16 17 19 17 16 11 9 7 8 8 6 4 5 12 12 9 8 10 10 11 11 9 7 6 6 5 6 6 5 3 4 6 6 8 10 10 10 10
Wind_Direction
156 153 151 140 133 124 119 118 119 123 129 137 141 142 146 153 146 140 133 131 117 105 92 89 100 106 108 113 109 103 103 104 100 101 106 113 103 102 101 104 112 98 102
150 151 153 141 137 132 125 123 120 121 123 126 135 138 140 141 143 137 133 126 123 114 101 97 93 110 112 111 112 115 116 109 106 108 114 114 108 106 104 98 89 104 107
147 149 152 146 139 136 131 129 126 125 124 126 132 132 135 135 142 137 127 122 115 105 102 97 108 110 114 120 117 118 118 120 116 117 126 119 110 109 109 105 101 104 103
145 150 150 143 145 144 140 139 136 136 137 133 135 135 143 141 134 130 129 122 121 120 117 108 117 113 114 122 115 112 120 119 116 123 132 123 119 116 109 111 104 103 104
147 150 146 147 144 147 147 147 145 145 147 147 148 152 145 139 136 136 135 126 120 117 116 118 115 121 120 122 118 114 114 114 118 134 125 119 124 119 112 115 112 106 100
148 151 147 142 150 151 154 152 154 150 151 155 156 155 149 143 138 134 127 126 122 118 116 117 119 113 120 122 129 114 122 118 135 127 127 114 115 121 119 113 116 114 107
151 150 153 146 156 158 162 163 158 154 159 161 165 158 162 150 144 138 135 122 121 120 121 128 124 122 123 125 122 131 131 128 127 133 130 130 119 127 127 122 120 117 118
153 153 152 156 161 160 169 165 165 162 158 163 168 162 167 164 148 136 140 134 133 132 135 126 123 125 132 135 128 154 154 142 142 131 137 137 123 139 133 127 125 127 124
155 155 158 160 166 166 174 174 169 167 165 167 171 173 156 165 149 154 149 149 140 144 137 134 131 135 144 142 134 141 152 146 147 143 154 156 150 143 133 132 132 129 128
159 163 162 164 172 168 176 182 180 174 176 172 175 185 173 173 172 175 155 169 166 153 155 156 153 157 144 147 148 164 198 159 162 163 156 146 174 152 137 143 144 137 133
169 171 172 171 178 172 174 184 185 183 187 181 180 181 181 169 169 173 211 186 186 178 180 172 174 173 164 168 158 174 199 175 182 175 164 163 177 165 145 152 152 141 133
177 177 179 182 182 178 178 182 189 189 192 180 183 178 186 179 177 195 181 198 201 202 207 196 195 198 200 170 222 204 184 145 181 174 192 172 185 175 164 154 154 145 142
183 182 180 186 188 185 184 182 190 194 187 186 174 177 184 184 184 191 191 198 198 193 240 216 215 215 215 177 204 207 203 184 184 185 158 195 195 172 156 135 153 168 160
187 187 192 188 190 194 190 190 190 195 194 192 183 188 187 192 194 192 210 210 223 227 240 253 216 231 225 192 221 208 181 239 202 195 172 201 204 184 131 75 178 194 171
189 191 193 192 192 194 197 194 197 199 202 199 186 195 200 198 204 213 225 232 233 235 242 249 232 218 231 213 192 229 208 231 220 203 199 202 194 184 152 172 197 194 183
191 196 192 195 196 196 202 202 202 200 205 203 204 204 206 208 205 226 247 242 247 238 255 257 267 239 231 245 209 204 242 240 220 207 216 190 188 187 174 163 204 197 185
195 196 196 195 198 198 204 205 208 209 202 209 208 209 212 214 209 226 242 247 233 232 238 233 235 231 234 222 222 193 206 198 243 193 205 194 184 198 198 194 182 194 194
199 200 198 198 200 203 206 205 210 215 213 211 211 211 209 216 223 210 231 244 240 229 225 250 237 235 226 222 219 200 186 185 184 197 210 171 211 217 197 191 197 205 208
204 199 201 200 201 205 210 210 210 216 223 215 212 218 215 213 216 207 221 236 245 238 242 243 243 240 225 210 214 194 169 167 176 216 212 191 217 209 202 177 204 213 210
205 204 207 203 205 197 201 213 220 216 222 216 210 218 214 220 218 219 225 223 225 237 255 241 248 226 251 225 191 170 201 174 201 218 190 211 207 202 207 211 192 204 213
206 205 206 204 198 197 197 203 210 217 217 210 215 212 205 210 202 223 234 248 214 242 239 234 262 245 217 208 145 115 214 219 205 220 201 227 195 203 204 203 214 210 191
208 208 205 199 193 196 201 195 194 188 205 171 226 231 190 201 197 208 224 225 197 231 237 232 229 221 225 206 193 147 192 206 228 192 189 204 207 197 200 204 206 200 207
211 207 206 200 197 201 205 188 176 156 145 180 202 170 199 234 208 201 233 232 218 221 248 249 232 226 223 201 213 160 150 246 180 162 196 201 197 199 200 202 206 200 207
212 207 207 202 202 199 195 195 192 196 187 197 197 186 209 221 206 236 243 225 231 226 208 239 259 238 232 205 201 219 210 236 194 158 166 199 194 207 202 201 204 207 206
207 207 201 201 202 198 194 201 200 197 208 137 161 182 192 193 206 212 262 247 227 224 217 213 230 221 221 219 202 169 204 227 233 237 164 179 188 214 210 209 208 209 207
199 202 198 199 204 200 200 202 202 203 191 189 164 185 180 189 203 230 237 245 243 232 223 218 220 214 214 219 218 214 191 194 196 193 179 172 194 197 213 208 213 212 211